Weather History for Lihue, HI

Change the Weather History Date:

Tuesday, April 1, 2014

  Actual Average Record
Temperature  
Mean Temperature 77 °F 74 °F  
Max Temperature 80 °F 79 °F 83 °F (1963)
Min Temperature 73 °F 68 °F 58 °F (2013)
Degree Days  
Heating Degree Days 0 0  
Month to date heating degree days 0 0  
Since 1 July heating degree days 0 0  
Cooling Degree Days 12 8  
Month to date cooling degree days 12 8  
Year to date cooling degree days 599 642  
Growing Degree Days 25 (Base 50)    
Moisture  
Dew Point 69 °F    
Average Humidity 78    
Maximum Humidity 87    
Minimum Humidity 69    
Precipitation  
Precipitation T in 0.10 in 0.90 in (1965)
Month to date precipitation T 0.10  
Year to date precipitation 12.33 11.62  
Snow  
Snow 0.00 in - - ()
Month to date snowfall 0.0  
Since 1 July snowfall 0.0  
Snow Depth 0.00 in    
Sea Level Pressure  
Sea Level Pressure 30.08 in    
Wind  
Wind Speed 16 mph (ENE)    
Max Wind Speed 23 mph    
Max Gust Speed 36 mph    
Visibility 10 miles    
Events Rain    
T = Trace of Precipitation, MM = Missing Value Source: NWS Daily Summary

Daily Weather History Graph

Daily Weather History Graph

Search for Another Location

Airport:

Trip Planner

Search our weather history database for the weather conditions in past years. The results will help you decide how hot, cold, wet, or windy it might be!

Date:

Astronomy

Apr. 01, 2014 Rise Set
Actual Time 6:29 AM HST 6:52 PM HST
Civil Twilight 6:07 AM HST 7:14 PM HST
Nautical Twilight 5:41 AM HST 7:41 PM HST
Astronomical Twilight 5:14 AM HST 8:07 PM HST
Moon 7:55 AM HST (4/1) 9:08 PM HST (4/1)
Length of Visible Light 13h 07m
Length of Day
12h 22m
Waxing Crescent, 6% of the Moon is Illuminated
Apr 1
Waxing Crescent
Apr 6
First Quarter
Apr 14
Full
Apr 21
Last Quarter
Apr 28
New

Hourly Weather History & Observations

Time (HST) Temp. Heat Index Dew Point Humidity Pressure Visibility Wind Dir Wind Speed Gust Speed Precip Events Conditions
12:07 AM 73.4 °F - 69.8 °F 88% 30.08 in 10.0 mi ENE 17.3 mph - 0.00 in   Overcast
12:53 AM 73.0 °F - 69.1 °F 87% 30.07 in 10.0 mi ENE 15.0 mph - 0.00 in   Mostly Cloudy
1:11 AM 73.4 °F - 68.0 °F 83% 30.07 in 10.0 mi ENE 17.3 mph - N/A   Overcast
1:19 AM 73.4 °F - 68.0 °F 83% 30.07 in 9.0 mi ENE 17.3 mph - N/A   Overcast
1:46 AM 73.4 °F - 68.0 °F 83% 30.06 in 10.0 mi ENE 16.1 mph - 0.00 in   Overcast
1:53 AM 73.0 °F - 69.1 °F 87% 30.06 in 10.0 mi ENE 16.1 mph - 0.00 in   Overcast
2:53 AM 73.0 °F - 69.1 °F 87% 30.04 in 10.0 mi NE 13.8 mph - N/A   Mostly Cloudy
3:01 AM 73.4 °F - 69.8 °F 88% 30.04 in 10.0 mi NE 13.8 mph - N/A   Scattered Clouds
3:15 AM 73.4 °F - 68.0 °F 83% 30.04 in 10.0 mi NE 16.1 mph - N/A   Mostly Cloudy
3:53 AM 73.0 °F - 68.0 °F 84% 30.03 in 10.0 mi NE 12.7 mph - N/A   Overcast
4:53 AM 73.0 °F - 68.0 °F 84% 30.03 in 10.0 mi NE 12.7 mph - N/A   Overcast
5:14 AM 73.4 °F - 68.0 °F 83% 30.04 in 10.0 mi NE 13.8 mph - N/A   Mostly Cloudy
5:23 AM 73.4 °F - 68.0 °F 83% 30.05 in 10.0 mi NE 13.8 mph - N/A   Mostly Cloudy
5:53 AM 73.0 °F - 69.1 °F 87% 30.05 in 10.0 mi ENE 12.7 mph - N/A   Overcast
6:53 AM 73.0 °F - 68.0 °F 84% 30.07 in 10.0 mi ENE 13.8 mph - N/A   Mostly Cloudy
7:53 AM 75.0 °F - 69.1 °F 82% 30.08 in 10.0 mi ENE 15.0 mph - N/A   Overcast
8:31 AM 75.2 °F - 69.8 °F 83% 30.10 in 10.0 mi ENE 16.1 mph 35.7 mph N/A   Mostly Cloudy
8:49 AM 77.0 °F - 69.8 °F 78% 30.10 in 10.0 mi ENE 17.3 mph - N/A   Mostly Cloudy
8:53 AM 75.9 °F - 69.1 °F 79% 30.09 in 10.0 mi ENE 16.1 mph - N/A   Mostly Cloudy
9:53 AM 78.1 °F - 70.0 °F 76% 30.10 in 10.0 mi East 16.1 mph - N/A   Overcast
10:53 AM 78.1 °F - 69.1 °F 74% 30.10 in 10.0 mi ENE 17.3 mph - N/A   Overcast
11:53 AM 79.0 °F - 70.0 °F 74% 30.09 in 10.0 mi ENE 17.3 mph - N/A   Overcast
12:53 PM 78.1 °F - 69.1 °F 74% 30.08 in 10.0 mi ENE 18.4 mph - N/A   Overcast
1:53 PM 78.1 °F - 68.0 °F 71% 30.06 in 10.0 mi ENE 19.6 mph - N/A   Overcast
2:04 PM 78.8 °F - 69.8 °F 74% 30.07 in 10.0 mi ENE 18.4 mph - N/A   Overcast
2:13 PM 78.8 °F - 69.8 °F 74% 30.07 in 10.0 mi ENE 17.3 mph - N/A   Overcast
2:53 PM 80.1 °F 82.9 °F 69.1 °F 69% 30.05 in 10.0 mi ENE 20.7 mph - N/A   Overcast
3:13 PM 78.8 °F - 69.8 °F 74% 30.05 in 9.0 mi ENE 17.3 mph - N/A   Overcast
3:44 PM 78.8 °F - 69.8 °F 74% 30.05 in 10.0 mi ENE 16.1 mph 23.0 mph N/A   Overcast
3:53 PM 78.1 °F - 70.0 °F 76% 30.04 in 9.0 mi NE 19.6 mph 23.0 mph N/A   Overcast
3:58 PM 77.0 °F - 69.8 °F 78% 30.05 in 10.0 mi ENE 18.4 mph - N/A   Mostly Cloudy
4:53 PM 77.0 °F - 69.1 °F 76% 30.04 in 10.0 mi ENE 16.1 mph - N/A   Mostly Cloudy
5:53 PM 75.0 °F - 69.1 °F 82% 30.06 in 10.0 mi ENE 17.3 mph - N/A   Overcast
6:53 PM 73.9 °F - 69.1 °F 85% 30.08 in 8.0 mi ENE 18.4 mph - N/A   Overcast
7:53 PM 73.9 °F - 69.1 °F 85% 30.10 in 10.0 mi ENE 18.4 mph - N/A   Overcast
8:01 PM 75.2 °F - 69.8 °F 83% 30.10 in 10.0 mi ENE 17.3 mph - N/A   Overcast
8:53 PM 75.0 °F - 69.1 °F 82% 30.12 in 9.0 mi ENE 17.3 mph 26.5 mph N/A   Overcast
9:04 PM 73.4 °F - 69.8 °F 88% 30.13 in 9.0 mi ENE 15.0 mph - N/A   Overcast
9:53 PM 73.9 °F - 70.0 °F 87% 30.13 in 9.0 mi ENE 20.7 mph - N/A   Overcast
10:42 PM 73.4 °F - 69.8 °F 88% 30.15 in 5.0 mi NE 17.3 mph 29.9 mph 0.00 in Rain Light Rain
10:53 PM 73.0 °F - 70.0 °F 90% 30.14 in 9.0 mi ENE 18.4 mph 24.2 mph 0.00 in   Overcast
11:53 PM 73.0 °F - 70.0 °F 90% 30.13 in 8.0 mi NE 15.0 mph - N/A   Overcast